contact:dominique.lefevre@mio.osupytheas.fr, maurice.libes@osupytheas.fr, didier.mallarino@osupytheas.fr
Project:EMSO http://www.emso-fr.org/EMSO-France
Depth: 2436.0 m
Title:EMSO Ligure Ouest : Data MII capteur CSTAR
DateTime,Latitude,Longitude,Instrument_Serial,Reference_Counts,Signal_Counts,Corrected_Signal_raw_counts,Calculated_Beam_c_inverse_meters,Internal_thermistor_counts
DateTime,Latitude,Longitude,Instrument_Serial,Reference_Counts,Signal_Counts,Corrected_Signal_raw_counts,Calculated_Beam_c_inverse_meters,Internal_thermistor_counts
2021-10-15T00:00:29,42.805,6.029,CST-1368DR,5150,6906,14351,0.338,551
2021-10-15T00:03:30,42.805,6.029,CST-1368DR,5150,6906,14351,0.338,551
2021-10-15T00:06:32,42.805,6.029,CST-1368DR,5150,6905,14351,0.338,551
2021-10-15T00:09:34,42.805,6.029,CST-1368DR,5150,6906,14351,0.338,551
2021-10-15T00:12:35,42.805,6.029,CST-1368DR,5150,6906,14352,0.338,551
2021-10-15T00:15:37,42.805,6.029,CST-1368DR,5150,6906,14352,0.338,551
2021-10-15T00:18:38,42.805,6.029,CST-1368DR,5150,6906,14351,0.338,551
2021-10-15T00:21:40,42.805,6.029,CST-1368DR,5150,6905,14351,0.338,551
2021-10-15T00:24:41,42.805,6.029,CST-1368DR,5150,6906,14351,0.338,551
2021-10-15T00:27:43,42.805,6.029,CST-1368DR,5150,6905,14350,0.338,551
2021-10-15T00:30:45,42.805,6.029,CST-1368DR,5150,6905,14351,0.338,551
2021-10-15T00:33:46,42.805,6.029,CST-1368DR,5150,6899,14337,0.342,551
2021-10-15T00:36:48,42.805,6.029,CST-1368DR,5150,6905,14350,0.338,551
2021-10-15T00:39:49,42.805,6.029,CST-1368DR,5150,6904,14348,0.339,551
2021-10-15T00:42:51,42.805,6.029,CST-1368DR,5150,6905,14350,0.338,551
2021-10-15T00:45:52,42.805,6.029,CST-1368DR,5150,6905,14351,0.338,551
2021-10-15T00:48:54,42.805,6.029,CST-1368DR,5150,6905,14350,0.338,551
2021-10-15T00:51:56,42.805,6.029,CST-1368DR,5150,6905,14350,0.338,551
2021-10-15T00:54:57,42.805,6.029,CST-1368DR,5150,6903,14347,0.339,551
2021-10-15T00:57:59,42.805,6.029,CST-1368DR,5150,6905,14350,0.338,551
2021-10-15T01:01:00,42.805,6.029,CST-1368DR,5150,6905,14350,0.338,551
2021-10-15T01:04:02,42.805,6.029,CST-1368DR,5150,6904,14347,0.339,551
2021-10-15T01:07:04,42.805,6.029,CST-1368DR,5150,6904,14348,0.339,551
2021-10-15T01:10:05,42.805,6.029,CST-1368DR,5150,6906,14351,0.338,551
2021-10-15T01:13:07,42.805,6.029,CST-1368DR,5150,6905,14350,0.338,551
2021-10-15T01:16:08,42.805,6.029,CST-1368DR,5150,6904,14348,0.339,551
2021-10-15T01:19:10,42.805,6.029,CST-1368DR,5150,6904,14348,0.339,551
2021-10-15T01:22:11,42.805,6.029,CST-1368DR,5150,6904,14348,0.339,551
2021-10-15T01:25:13,42.805,6.029,CST-1368DR,5150,6904,14347,0.339,551
2021-10-15T01:28:15,42.805,6.029,CST-1368DR,5150,6905,14350,0.338,551
2021-10-15T01:31:16,42.805,6.029,CST-1368DR,5150,6904,14347,0.339,551
2021-10-15T01:34:18,42.805,6.029,CST-1368DR,5150,6904,14348,0.339,551
2021-10-15T01:37:19,42.805,6.029,CST-1368DR,5150,6904,14349,0.338,551
2021-10-15T01:40:21,42.805,6.029,CST-1368DR,5150,6904,14348,0.339,551
2021-10-15T01:43:23,42.805,6.029,CST-1368DR,5150,6902,14344,0.340,551
2021-10-15T01:46:24,42.805,6.029,CST-1368DR,5150,6904,14348,0.339,551
2021-10-15T01:49:26,42.805,6.029,CST-1368DR,5150,6904,14348,0.339,551
2021-10-15T01:52:27,42.805,6.029,CST-1368DR,5150,6904,14349,0.338,551
2021-10-15T01:55:29,42.805,6.029,CST-1368DR,5150,6904,14348,0.339,551
2021-10-15T01:58:30,42.805,6.029,CST-1368DR,5150,6904,14347,0.339,551
2021-10-15T02:01:32,42.805,6.029,CST-1368DR,5150,6904,14349,0.338,551
2021-10-15T02:04:34,42.805,6.029,CST-1368DR,5150,6904,14349,0.338,551
2021-10-15T02:07:35,42.805,6.029,CST-1368DR,5150,6904,14349,0.338,551
2021-10-15T02:10:37,42.805,6.029,CST-1368DR,5150,6904,14348,0.339,551
2021-10-15T02:13:38,42.805,6.029,CST-1368DR,5150,6904,14348,0.339,551
2021-10-15T02:16:40,42.805,6.029,CST-1368DR,5150,6904,14347,0.339,551
2021-10-15T02:19:41,42.805,6.029,CST-1368DR,5150,6904,14349,0.338,551
2021-10-15T02:22:43,42.805,6.029,CST-1368DR,5150,6905,14350,0.338,551
2021-10-15T02:25:45,42.805,6.029,CST-1368DR,5150,6904,14348,0.339,551
2021-10-15T02:28:46,42.805,6.029,CST-1368DR,5150,6904,14349,0.338,551
2021-10-15T02:31:48,42.805,6.029,CST-1368DR,5150,6904,14349,0.338,551
2021-10-15T02:34:49,42.805,6.029,CST-1368DR,5150,6905,14350,0.338,551
2021-10-15T02:37:51,42.805,6.029,CST-1368DR,5150,6904,14348,0.339,551
2021-10-15T02:40:53,42.805,6.029,CST-1368DR,5150,6904,14348,0.339,551
2021-10-15T02:43:54,42.805,6.029,CST-1368DR,5150,6904,14349,0.338,551
2021-10-15T02:46:56,42.805,6.029,CST-1368DR,5150,6905,14350,0.338,551
2021-10-15T02:49:57,42.805,6.029,CST-1368DR,5150,6904,14349,0.338,551
2021-10-15T02:52:59,42.805,6.029,CST-1368DR,5150,6903,14347,0.339,551
2021-10-15T02:56:00,42.805,6.029,CST-1368DR,5150,6905,14350,0.338,551
2021-10-15T02:59:02,42.805,6.029,CST-1368DR,5150,6904,14347,0.339,551
2021-10-15T03:02:04,42.805,6.029,CST-1368DR,5150,6904,14348,0.339,551
2021-10-15T03:05:05,42.805,6.029,CST-1368DR,5150,6904,14348,0.339,551
2021-10-15T03:08:07,42.805,6.029,CST-1368DR,5150,6904,14348,0.339,551
2021-10-15T03:11:08,42.805,6.029,CST-1368DR,5150,6904,14349,0.338,551
2021-10-15T03:14:10,42.805,6.029,CST-1368DR,5150,6904,14347,0.339,551
2021-10-15T03:17:12,42.805,6.029,CST-1368DR,5150,6905,14350,0.338,551
2021-10-15T03:20:13,42.805,6.029,CST-1368DR,5150,6904,14349,0.338,551
2021-10-15T03:23:15,42.805,6.029,CST-1368DR,5150,6904,14348,0.339,551
2021-10-15T03:26:16,42.805,6.029,CST-1368DR,5150,6904,14348,0.339,551
2021-10-15T03:29:18,42.805,6.029,CST-1368DR,5150,6904,14348,0.339,551
2021-10-15T03:32:19,42.805,6.029,CST-1368DR,5150,6903,14347,0.339,551
2021-10-15T03:35:21,42.805,6.029,CST-1368DR,5150,6905,14350,0.338,551
2021-10-15T03:38:23,42.805,6.029,CST-1368DR,5150,6904,14348,0.339,551
2021-10-15T03:41:24,42.805,6.029,CST-1368DR,5150,6901,14342,0.340,551
2021-10-15T03:44:26,42.805,6.029,CST-1368DR,5150,6905,14350,0.338,551
2021-10-15T03:47:27,42.805,6.029,CST-1368DR,5150,6904,14349,0.338,551
2021-10-15T03:50:29,42.805,6.029,CST-1368DR,5150,6904,14348,0.339,551
2021-10-15T03:53:30,42.805,6.029,CST-1368DR,5150,6904,14348,0.339,551
2021-10-15T03:56:32,42.805,6.029,CST-1368DR,5150,6905,14350,0.338,551
2021-10-15T03:59:34,42.805,6.029,CST-1368DR,5150,6903,14347,0.339,551
2021-10-15T04:02:35,42.805,6.029,CST-1368DR,5150,6905,14350,0.338,551
2021-10-15T04:05:37,42.805,6.029,CST-1368DR,5150,6904,14348,0.339,551
2021-10-15T04:08:38,42.805,6.029,CST-1368DR,5150,6904,14347,0.339,551
2021-10-15T04:11:40,42.805,6.029,CST-1368DR,5150,6904,14347,0.339,551
2021-10-15T04:14:42,42.805,6.029,CST-1368DR,5149,6898,14337,0.342,551
2021-10-15T04:17:43,42.805,6.029,CST-1368DR,5150,6904,14349,0.338,551
2021-10-15T04:20:45,42.805,6.029,CST-1368DR,5149,6904,14350,0.338,551
2021-10-15T04:23:46,42.805,6.029,CST-1368DR,5150,6904,14348,0.339,551
2021-10-15T04:26:48,42.805,6.029,CST-1368DR,5149,6904,14351,0.338,551
2021-10-15T04:29:49,42.805,6.029,CST-1368DR,5149,6904,14351,0.338,551
2021-10-15T04:32:51,42.805,6.029,CST-1368DR,5149,6904,14351,0.338,551
2021-10-15T04:35:53,42.805,6.029,CST-1368DR,5150,6904,14349,0.338,551
2021-10-15T04:38:54,42.805,6.029,CST-1368DR,5149,6904,14351,0.338,551
2021-10-15T04:41:56,42.805,6.029,CST-1368DR,5149,6905,14352,0.338,551
2021-10-15T04:44:57,42.805,6.029,CST-1368DR,5149,6904,14351,0.338,551
2021-10-15T04:47:59,42.805,6.029,CST-1368DR,5149,6903,14349,0.338,551
2021-10-15T04:51:00,42.805,6.029,CST-1368DR,5149,6904,14350,0.338,551
2021-10-15T04:54:02,42.805,6.029,CST-1368DR,5149,6903,14348,0.339,550
2021-10-15T04:57:04,42.805,6.029,CST-1368DR,5149,6904,14350,0.338,551
2021-10-15T05:00:05,42.805,6.029,CST-1368DR,5149,6904,14350,0.338,551
2021-10-15T05:03:07,42.805,6.029,CST-1368DR,5149,6903,14349,0.338,551
2021-10-15T05:06:08,42.805,6.029,CST-1368DR,5149,6904,14350,0.338,551
2021-10-15T05:09:10,42.805,6.029,CST-1368DR,5149,6903,14348,0.339,551
2021-10-15T05:12:12,42.805,6.029,CST-1368DR,5149,6903,14349,0.338,551
2021-10-15T05:15:13,42.805,6.029,CST-1368DR,5149,6902,14347,0.339,551
2021-10-15T05:18:15,42.805,6.029,CST-1368DR,5149,6902,14346,0.339,551
2021-10-15T05:21:16,42.805,6.029,CST-1368DR,5149,6904,14351,0.338,551
2021-10-15T05:24:18,42.805,6.029,CST-1368DR,5149,6903,14348,0.339,551
2021-10-15T05:27:19,42.805,6.029,CST-1368DR,5149,6903,14349,0.338,551
2021-10-15T05:30:21,42.805,6.029,CST-1368DR,5149,6903,14349,0.338,551
2021-10-15T05:33:23,42.805,6.029,CST-1368DR,5149,6903,14349,0.338,551
2021-10-15T05:36:24,42.805,6.029,CST-1368DR,5149,6903,14349,0.338,551
2021-10-15T05:39:26,42.805,6.029,CST-1368DR,5149,6902,14347,0.339,551
2021-10-15T05:42:27,42.805,6.029,CST-1368DR,5149,6903,14349,0.338,551
2021-10-15T05:45:29,42.805,6.029,CST-1368DR,5149,6904,14350,0.338,551
2021-10-15T05:48:31,42.805,6.029,CST-1368DR,5149,6902,14347,0.339,551
2021-10-15T05:51:32,42.805,6.029,CST-1368DR,5149,6903,14349,0.338,550
2021-10-15T05:54:34,42.805,6.029,CST-1368DR,5149,6903,14348,0.339,551
2021-10-15T05:57:35,42.805,6.029,CST-1368DR,5149,6903,14349,0.338,551
2021-10-15T06:00:37,42.805,6.029,CST-1368DR,5149,6903,14349,0.338,551
2021-10-15T06:03:38,42.805,6.029,CST-1368DR,5149,6902,14346,0.339,551
2021-10-15T06:06:40,42.805,6.029,CST-1368DR,5149,6903,14348,0.339,551
2021-10-15T06:09:42,42.805,6.029,CST-1368DR,5149,6903,14349,0.338,551
2021-10-15T06:12:43,42.805,6.029,CST-1368DR,5149,6902,14347,0.339,551
2021-10-15T06:15:45,42.805,6.029,CST-1368DR,5149,6903,14348,0.339,550
2021-10-15T06:18:46,42.805,6.029,CST-1368DR,5149,6902,14347,0.339,551
2021-10-15T06:21:48,42.805,6.029,CST-1368DR,5149,6903,14349,0.338,551
2021-10-15T06:24:50,42.805,6.029,CST-1368DR,5149,6903,14348,0.339,551
2021-10-15T06:27:51,42.805,6.029,CST-1368DR,5149,6902,14347,0.339,551
2021-10-15T06:30:53,42.805,6.029,CST-1368DR,5149,6903,14348,0.339,551
2021-10-15T06:33:54,42.805,6.029,CST-1368DR,5149,6903,14349,0.338,551
2021-10-15T06:36:56,42.805,6.029,CST-1368DR,5149,6902,14347,0.339,551
2021-10-15T06:39:57,42.805,6.029,CST-1368DR,5149,6903,14349,0.338,551
2021-10-15T06:42:59,42.805,6.029,CST-1368DR,5149,6902,14347,0.339,551
2021-10-15T06:46:01,42.805,6.029,CST-1368DR,5149,6901,14344,0.340,551
2021-10-15T06:49:02,42.805,6.029,CST-1368DR,5149,6903,14349,0.338,551
2021-10-15T06:52:04,42.805,6.029,CST-1368DR,5149,6902,14346,0.339,551
2021-10-15T06:55:05,42.805,6.029,CST-1368DR,5149,6903,14349,0.338,551
2021-10-15T06:58:07,42.805,6.029,CST-1368DR,5149,6903,14349,0.338,551
2021-10-15T07:01:08,42.805,6.029,CST-1368DR,5149,6903,14348,0.339,551
2021-10-15T07:04:10,42.805,6.029,CST-1368DR,5149,6903,14348,0.339,551
2021-10-15T07:07:12,42.805,6.029,CST-1368DR,5149,6903,14349,0.338,551
2021-10-15T07:10:13,42.805,6.029,CST-1368DR,5149,6903,14349,0.338,551
2021-10-15T07:13:15,42.805,6.029,CST-1368DR,5149,6901,14344,0.340,551
2021-10-15T07:16:16,42.805,6.029,CST-1368DR,5149,6902,14347,0.339,551
2021-10-15T07:19:18,42.805,6.029,CST-1368DR,5149,6903,14348,0.339,551
2021-10-15T07:22:20,42.805,6.029,CST-1368DR,5149,6903,14348,0.339,551
2021-10-15T07:25:21,42.805,6.029,CST-1368DR,5149,6903,14348,0.339,551
2021-10-15T07:28:23,42.805,6.029,CST-1368DR,5149,6900,14343,0.340,551
2021-10-15T07:31:24,42.805,6.029,CST-1368DR,5149,6902,14347,0.339,551
2021-10-15T07:34:26,42.805,6.029,CST-1368DR,5149,6902,14347,0.339,551
2021-10-15T07:37:27,42.805,6.029,CST-1368DR,5149,6903,14349,0.338,551
2021-10-15T07:40:29,42.805,6.029,CST-1368DR,5149,6902,14347,0.339,551
2021-10-15T07:43:31,42.805,6.029,CST-1368DR,5149,6903,14348,0.339,551
2021-10-15T07:46:32,42.805,6.029,CST-1368DR,5149,6901,14344,0.340,551
2021-10-15T07:49:34,42.805,6.029,CST-1368DR,5149,6902,14347,0.339,551
2021-10-15T07:52:35,42.805,6.029,CST-1368DR,5149,6899,14339,0.341,551
2021-10-15T07:55:37,42.805,6.029,CST-1368DR,5149,6899,14340,0.341,551
2021-10-15T07:58:39,42.805,6.029,CST-1368DR,5149,6900,14341,0.341,551
2021-10-15T08:01:40,42.805,6.029,CST-1368DR,5149,6900,14342,0.340,551
2021-10-15T08:04:42,42.805,6.029,CST-1368DR,5149,6900,14343,0.340,551
2021-10-15T08:07:43,42.805,6.029,CST-1368DR,5149,6901,14344,0.340,551
2021-10-15T08:10:45,42.805,6.029,CST-1368DR,5149,6902,14346,0.339,551
2021-10-15T08:13:46,42.805,6.029,CST-1368DR,5149,6901,14345,0.340,551
2021-10-15T08:16:48,42.805,6.029,CST-1368DR,5149,6902,14347,0.339,551
2021-10-15T08:19:50,42.805,6.029,CST-1368DR,5149,6900,14343,0.340,551
2021-10-15T08:22:51,42.805,6.029,CST-1368DR,5149,6901,14344,0.340,551
2021-10-15T08:25:53,42.805,6.029,CST-1368DR,5149,6902,14347,0.339,551
2021-10-15T08:28:54,42.805,6.029,CST-1368DR,5149,6900,14343,0.340,551
2021-10-15T08:31:56,42.805,6.029,CST-1368DR,5149,6902,14346,0.339,551
2021-10-15T08:34:57,42.805,6.029,CST-1368DR,5149,6902,14346,0.339,551
2021-10-15T08:37:59,42.805,6.029,CST-1368DR,5149,6902,14346,0.339,551
2021-10-15T08:41:01,42.805,6.029,CST-1368DR,5149,6901,14344,0.340,551
2021-10-15T08:44:02,42.805,6.029,CST-1368DR,5149,6901,14345,0.340,551
2021-10-15T08:47:04,42.805,6.029,CST-1368DR,5149,6901,14345,0.340,551
2021-10-15T08:50:05,42.805,6.029,CST-1368DR,5149,6900,14343,0.340,551
2021-10-15T08:53:07,42.805,6.029,CST-1368DR,5149,6901,14344,0.340,551
2021-10-15T08:56:09,42.805,6.029,CST-1368DR,5149,6902,14346,0.339,551
2021-10-15T08:59:10,42.805,6.029,CST-1368DR,5149,6901,14344,0.340,551
2021-10-15T09:02:12,42.805,6.029,CST-1368DR,5149,6900,14343,0.340,551
2021-10-15T09:05:13,42.805,6.029,CST-1368DR,5149,6901,14344,0.340,551
2021-10-15T09:08:15,42.805,6.029,CST-1368DR,5149,6901,14344,0.340,551
2021-10-15T09:11:16,42.805,6.029,CST-1368DR,5149,6900,14342,0.340,551
2021-10-15T09:14:18,42.805,6.029,CST-1368DR,5149,6902,14347,0.339,551
2021-10-15T09:17:20,42.805,6.029,CST-1368DR,5149,6902,14346,0.339,551
2021-10-15T09:20:21,42.805,6.029,CST-1368DR,5149,6902,14347,0.339,551
2021-10-15T09:23:23,42.805,6.029,CST-1368DR,5149,6902,14346,0.339,551
2021-10-15T09:26:24,42.805,6.029,CST-1368DR,5149,6902,14346,0.339,551
2021-10-15T09:29:26,42.805,6.029,CST-1368DR,5149,6900,14343,0.340,551
2021-10-15T09:32:28,42.805,6.029,CST-1368DR,5149,6900,14343,0.340,551
2021-10-15T09:35:29,42.805,6.029,CST-1368DR,5149,6902,14346,0.339,551
2021-10-15T09:38:31,42.805,6.029,CST-1368DR,5149,6901,14344,0.340,551
2021-10-15T09:41:32,42.805,6.029,CST-1368DR,5149,6902,14346,0.339,551
2021-10-15T09:44:34,42.805,6.029,CST-1368DR,5149,6899,14341,0.341,551
2021-10-15T09:47:35,42.805,6.029,CST-1368DR,5149,6901,14344,0.340,551
2021-10-15T09:50:37,42.805,6.029,CST-1368DR,5149,6901,14344,0.340,551
2021-10-15T09:53:39,42.805,6.029,CST-1368DR,5149,6902,14346,0.339,551
2021-10-15T09:56:40,42.805,6.029,CST-1368DR,5149,6902,14346,0.339,551
2021-10-15T09:59:42,42.805,6.029,CST-1368DR,5149,6900,14343,0.340,551
2021-10-15T10:02:43,42.805,6.029,CST-1368DR,5149,6900,14343,0.340,551
2021-10-15T10:05:45,42.805,6.029,CST-1368DR,5149,6900,14343,0.340,551
2021-10-15T10:08:46,42.805,6.029,CST-1368DR,5149,6900,14342,0.340,551
2021-10-15T10:11:48,42.805,6.029,CST-1368DR,5149,6899,14339,0.341,551
2021-10-15T10:14:50,42.805,6.029,CST-1368DR,5149,6901,14344,0.340,551
2021-10-15T10:17:51,42.805,6.029,CST-1368DR,5149,6900,14342,0.340,551
2021-10-15T10:20:53,42.805,6.029,CST-1368DR,5149,6900,14342,0.340,551
2021-10-15T10:23:54,42.805,6.029,CST-1368DR,5149,6901,14345,0.340,551
2021-10-15T10:26:56,42.805,6.029,CST-1368DR,5149,6900,14343,0.340,551
2021-10-15T10:29:58,42.805,6.029,CST-1368DR,5149,6901,14344,0.340,551
2021-10-15T10:32:59,42.805,6.029,CST-1368DR,5149,6901,14344,0.340,551
2021-10-15T10:36:01,42.805,6.029,CST-1368DR,5149,6901,14344,0.340,551
2021-10-15T10:39:02,42.805,6.029,CST-1368DR,5149,6901,14345,0.340,551
2021-10-15T10:42:04,42.805,6.029,CST-1368DR,5149,6901,14344,0.340,551
2021-10-15T10:45:05,42.805,6.029,CST-1368DR,5149,6898,14338,0.342,551
2021-10-15T10:48:07,42.805,6.029,CST-1368DR,5149,6900,14342,0.340,551
2021-10-15T10:51:09,42.805,6.029,CST-1368DR,5149,6900,14343,0.340,551
2021-10-15T10:54:10,42.805,6.029,CST-1368DR,5149,6901,14345,0.340,551
2021-10-15T10:57:12,42.805,6.029,CST-1368DR,5148,6902,14348,0.339,551
2021-10-15T11:00:13,42.805,6.029,CST-1368DR,5148,6900,14346,0.339,551
2021-10-15T11:03:15,42.805,6.029,CST-1368DR,5148,6900,14345,0.340,551
2021-10-15T11:06:17,42.805,6.029,CST-1368DR,5148,6901,14347,0.339,551
2021-10-15T11:09:18,42.805,6.029,CST-1368DR,5148,6901,14347,0.339,551
2021-10-15T11:12:20,42.805,6.029,CST-1368DR,5148,6901,14347,0.339,551
2021-10-15T11:15:21,42.805,6.029,CST-1368DR,5148,6900,14345,0.340,551
2021-10-15T11:18:23,42.805,6.029,CST-1368DR,5148,6901,14347,0.339,551
2021-10-15T11:21:24,42.805,6.029,CST-1368DR,5148,6900,14345,0.340,551
2021-10-15T11:24:26,42.805,6.029,CST-1368DR,5148,6901,14347,0.339,551
2021-10-15T11:27:28,42.805,6.029,CST-1368DR,5148,6898,14341,0.341,551
2021-10-15T11:30:29,42.805,6.029,CST-1368DR,5148,6900,14346,0.339,551
2021-10-15T11:33:31,42.805,6.029,CST-1368DR,5148,6900,14345,0.340,551
2021-10-15T11:36:32,42.805,6.029,CST-1368DR,5148,6901,14347,0.339,551
2021-10-15T11:39:34,42.805,6.029,CST-1368DR,5149,6901,14344,0.340,551
2021-10-15T11:42:35,42.805,6.029,CST-1368DR,5149,6901,14344,0.340,550
2021-10-15T11:45:37,42.805,6.029,CST-1368DR,5149,6900,14343,0.340,551
2021-10-15T11:48:39,42.805,6.029,CST-1368DR,5149,6901,14344,0.340,551
2021-10-15T11:51:40,42.805,6.029,CST-1368DR,5149,6899,14341,0.341,551
2021-10-15T11:54:42,42.805,6.029,CST-1368DR,5149,6900,14343,0.340,550
2021-10-15T11:57:43,42.805,6.029,CST-1368DR,5149,6900,14343,0.340,551
2021-10-15T12:00:45,42.805,6.029,CST-1368DR,5149,6901,14344,0.340,551
2021-10-15T12:03:47,42.805,6.029,CST-1368DR,5149,6900,14343,0.340,551
2021-10-15T12:06:48,42.805,6.029,CST-1368DR,5149,6900,14341,0.341,551
2021-10-15T12:09:50,42.805,6.029,CST-1368DR,5149,6901,14344,0.340,551
2021-10-15T12:12:51,42.805,6.029,CST-1368DR,5149,6901,14344,0.340,551
2021-10-15T12:15:53,42.805,6.029,CST-1368DR,5149,6900,14343,0.340,551
2021-10-15T12:18:54,42.805,6.029,CST-1368DR,5149,6902,14346,0.339,551
2021-10-15T12:21:56,42.805,6.029,CST-1368DR,5149,6898,14338,0.342,551
2021-10-15T12:24:58,42.805,6.029,CST-1368DR,5149,6900,14343,0.340,551
2021-10-15T12:27:59,42.805,6.029,CST-1368DR,5149,6901,14344,0.340,551
2021-10-15T12:31:01,42.805,6.029,CST-1368DR,5149,6900,14343,0.340,551
2021-10-15T12:34:02,42.805,6.029,CST-1368DR,5149,6900,14343,0.340,551
2021-10-15T12:37:04,42.805,6.029,CST-1368DR,5149,6900,14343,0.340,551
2021-10-15T12:40:06,42.805,6.029,CST-1368DR,5149,6900,14343,0.340,551
2021-10-15T12:43:07,42.805,6.029,CST-1368DR,5149,6897,14336,0.342,551
2021-10-15T12:46:09,42.805,6.029,CST-1368DR,5149,6902,14346,0.339,550
2021-10-15T12:49:10,42.805,6.029,CST-1368DR,5149,6900,14343,0.340,551
2021-10-15T12:52:12,42.805,6.029,CST-1368DR,5149,6901,14344,0.340,551
2021-10-15T12:55:13,42.805,6.029,CST-1368DR,5149,6901,14344,0.340,551
2021-10-15T12:58:15,42.805,6.029,CST-1368DR,5149,6901,14344,0.340,551
2021-10-15T13:01:17,42.805,6.029,CST-1368DR,5149,6901,14344,0.340,551
2021-10-15T13:04:18,42.805,6.029,CST-1368DR,5149,6900,14343,0.340,551
2021-10-15T13:07:20,42.805,6.029,CST-1368DR,5149,6900,14343,0.340,551
2021-10-15T13:10:21,42.805,6.029,CST-1368DR,5149,6900,14343,0.340,551
2021-10-15T13:13:23,42.805,6.029,CST-1368DR,5149,6900,14342,0.340,551
2021-10-15T13:16:24,42.805,6.029,CST-1368DR,5149,6901,14344,0.340,551
2021-10-15T13:19:26,42.805,6.029,CST-1368DR,5149,6901,14344,0.340,551
2021-10-15T13:22:28,42.805,6.029,CST-1368DR,5149,6901,14344,0.340,551
2021-10-15T13:25:29,42.805,6.029,CST-1368DR,5149,6901,14344,0.340,551
2021-10-15T13:28:31,42.805,6.029,CST-1368DR,5149,6901,14344,0.340,551
2021-10-15T13:31:32,42.805,6.029,CST-1368DR,5149,6902,14346,0.339,551
2021-10-15T13:34:34,42.805,6.029,CST-1368DR,5149,6901,14344,0.340,551
2021-10-15T13:37:36,42.805,6.029,CST-1368DR,5149,6901,14344,0.340,551
2021-10-15T13:40:37,42.805,6.029,CST-1368DR,5149,6900,14343,0.340,551
2021-10-15T13:43:39,42.805,6.029,CST-1368DR,5149,6901,14344,0.340,551
2021-10-15T13:46:40,42.805,6.029,CST-1368DR,5148,6900,14346,0.339,551
2021-10-15T13:49:42,42.805,6.029,CST-1368DR,5148,6900,14344,0.340,551
2021-10-15T13:52:43,42.805,6.029,CST-1368DR,5148,6901,14346,0.339,551
2021-10-15T13:55:45,42.805,6.029,CST-1368DR,5148,6900,14345,0.340,551
2021-10-15T13:58:47,42.805,6.029,CST-1368DR,5148,6900,14346,0.339,551
2021-10-15T14:01:48,42.805,6.029,CST-1368DR,5148,6900,14345,0.340,551
2021-10-15T14:04:50,42.805,6.029,CST-1368DR,5149,6901,14344,0.340,551
2021-10-15T14:07:51,42.805,6.029,CST-1368DR,5148,6900,14346,0.339,551
2021-10-15T14:10:53,42.805,6.029,CST-1368DR,5148,6900,14346,0.339,551
2021-10-15T14:13:55,42.805,6.029,CST-1368DR,5149,6900,14342,0.340,551
2021-10-15T14:16:56,42.805,6.029,CST-1368DR,5148,6900,14345,0.340,551
2021-10-15T14:19:58,42.805,6.029,CST-1368DR,5149,6900,14343,0.340,551
2021-10-15T14:22:59,42.805,6.029,CST-1368DR,5149,6900,14343,0.340,551
2021-10-15T14:26:01,42.805,6.029,CST-1368DR,5148,6900,14345,0.340,551
2021-10-15T14:29:02,42.805,6.029,CST-1368DR,5148,6900,14344,0.340,551
2021-10-15T14:32:04,42.805,6.029,CST-1368DR,5148,6900,14345,0.340,551
2021-10-15T14:35:06,42.805,6.029,CST-1368DR,5149,6900,14343,0.340,551
2021-10-15T14:38:07,42.805,6.029,CST-1368DR,5148,6899,14343,0.340,551
2021-10-15T14:41:09,42.805,6.029,CST-1368DR,5148,6900,14346,0.339,551
2021-10-15T14:44:10,42.805,6.029,CST-1368DR,5148,6900,14345,0.340,551
2021-10-15T14:47:12,42.805,6.029,CST-1368DR,5148,6899,14344,0.340,551
2021-10-15T14:50:13,42.805,6.029,CST-1368DR,5148,6899,14343,0.340,551
2021-10-15T14:53:15,42.805,6.029,CST-1368DR,5148,6899,14344,0.340,551
2021-10-15T14:56:17,42.805,6.029,CST-1368DR,5148,6899,14343,0.340,551
2021-10-15T14:59:18,42.805,6.029,CST-1368DR,5148,6899,14343,0.340,551
2021-10-15T15:02:20,42.805,6.029,CST-1368DR,5148,6900,14345,0.340,551
2021-10-15T15:05:21,42.805,6.029,CST-1368DR,5148,6899,14343,0.340,551
2021-10-15T15:08:23,42.805,6.029,CST-1368DR,5148,6900,14344,0.340,551
2021-10-15T15:11:25,42.805,6.029,CST-1368DR,5148,6899,14343,0.340,551
2021-10-15T15:14:26,42.805,6.029,CST-1368DR,5148,6899,14343,0.340,551
2021-10-15T15:17:28,42.805,6.029,CST-1368DR,5148,6900,14344,0.340,551
2021-10-15T15:20:29,42.805,6.029,CST-1368DR,5148,6898,14341,0.341,551
2021-10-15T15:23:31,42.805,6.029,CST-1368DR,5148,6900,14345,0.340,551
2021-10-15T15:26:32,42.805,6.029,CST-1368DR,5148,6899,14343,0.340,551
2021-10-15T15:29:34,42.805,6.029,CST-1368DR,5148,6900,14344,0.340,551
2021-10-15T15:32:36,42.805,6.029,CST-1368DR,5148,6899,14343,0.340,551
2021-10-15T15:35:37,42.805,6.029,CST-1368DR,5148,6899,14343,0.340,551
2021-10-15T15:38:39,42.805,6.029,CST-1368DR,5148,6899,14343,0.340,551
2021-10-15T15:41:40,42.805,6.029,CST-1368DR,5148,6899,14343,0.340,551
2021-10-15T15:44:42,42.805,6.029,CST-1368DR,5148,6899,14344,0.340,551
2021-10-15T15:47:44,42.805,6.029,CST-1368DR,5148,6899,14344,0.340,551
2021-10-15T15:50:45,42.805,6.029,CST-1368DR,5148,6899,14343,0.340,551
2021-10-15T15:53:47,42.805,6.029,CST-1368DR,5148,6899,14343,0.340,551
2021-10-15T15:56:48,42.805,6.029,CST-1368DR,5148,6900,14344,0.340,551
2021-10-15T15:59:50,42.805,6.029,CST-1368DR,5148,6899,14343,0.340,551
2021-10-15T16:02:51,42.805,6.029,CST-1368DR,5148,6899,14342,0.340,551
2021-10-15T16:05:53,42.805,6.029,CST-1368DR,5148,6898,14340,0.341,551
2021-10-15T16:08:55,42.805,6.029,CST-1368DR,5148,6899,14343,0.340,551
2021-10-15T16:11:56,42.805,6.029,CST-1368DR,5148,6899,14344,0.340,551
2021-10-15T16:14:58,42.805,6.029,CST-1368DR,5148,6899,14343,0.340,551
2021-10-15T16:17:59,42.805,6.029,CST-1368DR,5148,6899,14342,0.340,551
2021-10-15T16:21:01,42.805,6.029,CST-1368DR,5148,6899,14343,0.340,551
2021-10-15T16:24:02,42.805,6.029,CST-1368DR,5148,6899,14343,0.340,551
2021-10-15T16:27:04,42.805,6.029,CST-1368DR,5148,6899,14342,0.340,551
2021-10-15T16:30:06,42.805,6.029,CST-1368DR,5148,6899,14343,0.340,551
2021-10-15T16:33:07,42.805,6.029,CST-1368DR,5148,6879,14301,0.352,551
2021-10-15T16:36:09,42.805,6.029,CST-1368DR,5148,6899,14343,0.340,551
2021-10-15T16:39:10,42.805,6.029,CST-1368DR,5148,6899,14342,0.340,551
2021-10-15T16:42:12,42.805,6.029,CST-1368DR,5148,6899,14342,0.340,551
2021-10-15T16:45:14,42.805,6.029,CST-1368DR,5148,6899,14343,0.340,551
2021-10-15T16:48:15,42.805,6.029,CST-1368DR,5148,6898,14342,0.340,551
2021-10-15T16:51:17,42.805,6.029,CST-1368DR,5148,6899,14343,0.340,551